Content
SEND FEEDBACK

Daily
Averages
Monthly
Summary
United States of America

MANISTIQUE, MICHIGAN


Home > North America > United States > Michigan
Elevation: 610 feet     Latitude: 45 58N     Longitude: 086 15W

WEATHER
 
SELECT A DAY
Number of Records: 417,094;   Date Range: 5/11/98 - 10/19/14
 
SHARE

PRINT THIS DATA

[ ← Previous Day ]
WEATHER ALMANAC - AUGUST 25, 2014
[ Next Day → ]
[ °C ]   °F
Weather ElementAverageHighLow
Temperature67.6 °F75.4 °F (3:55 pm)64.4 °F (8:54 pm)
Dewpoint65.4 °F69.1 °F (2:34 pm)63.1 °F (4:14 pm)
Humidity93.1 %99 % (6:34 am)78 % (10:34 am)
Barometer29.97 in30.03 in (7:14 pm)29.90 in (6:35 am)
Wind Speed7.5 mph15 mph (2:54 pm)
Wind Gust23 mph (12:14 pm)
Weather ElementAverage
Visibility6.5 mi
Wind DirectionSSE (163.9 °)

Weather ElementTotal
Precipitation0.39 in
Cooling Degree Days4.9 (Base 65)
Growing Degree Days19.9 (Base 50)
Averaged from 69 records on August 25, 2014
WEATHER CONDITIONS BREAKOUT
WIND DIRECTION BREAKOUT
WEATHER BY HOUR - AUGUST 25, 2014
[ °C ]   °F
Local TimeTemperatureDewpointHumidityBarometerVisibilityWind DirectionWind SpeedGust SpeedPrecipitationEventsConditions
12:14 AM64.4 °F63.1 °F96 %30.03 in10.0 miESE (120°)4.6 mphClear
12:35 AM64.4 °F63.3 °F96 %30.03 in10.0 miESE (120°)4.6 mphClear
12:54 AM64.4 °F63.5 °F97 %30.02 in10.0 miSE (130°)5.8 mphClear
1:14 AM65.3 °F63.9 °F95 %30.02 in10.0 miSE (140°)6.9 mphClear
1:35 AM65.5 °F64.0 °F95 %30.01 in10.0 miSE (140°)11.5 mphClear
1:54 AM65.3 °F64.0 °F96 %30.01 in7.0 miSE (140°)8.1 mphClear
2:14 AM64.8 °F63.9 °F97 %30.01 in7.0 miSE (140°)8.1 mphClear
2:34 AM64.8 °F63.9 °F97 %30.01 in7.0 miSSE (150°)5.8 mphClear
2:54 AM64.8 °F64.0 °F98 %30.01 in5.0 miSE (140°)5.8 mphScattered Clouds
3:15 AM65.1 °F64.4 °F98 %30.01 in5.0 miSSE (150°)5.8 mphOvercast
3:34 AM65.1 °F64.2 °F97 %30.01 in5.0 miSSE (160°)4.6 mphOvercast
3:54 AM65.1 °F64.4 °F98 %30.01 in5.0 miSSE (160°)5.8 mphOvercast
4:15 AM65.1 °F64.4 °F98 %30.00 in4.0 miSSE (150°)3.5 mphOvercast
4:34 AM65.3 °F64.4 °F97 %30.00 in4.0 miSE (140°)5.8 mphOvercast
5:14 AM65.3 °F64.4 °F97 %30.01 in4.0 miSE (140°)4.6 mphOvercast
5:34 AM65.3 °F64.4 °F97 %30.01 in4.0 miSE (140°)3.5 mphOvercast
5:54 AM65.3 °F64.4 °F97 %30.01 in3.0 miSSE (150°)4.6 mphOvercast
6:14 AM65.3 °F64.6 °F98 %30.01 in4.0 miCalmOvercast
6:34 AM65.5 °F64.8 °F98 %30.01 in4.0 miCalmOvercast
6:54 AM65.3 °F64.6 °F98 %30.00 in2.5 miCalmOvercast
7:15 AM65.3 °F64.4 °F97 %29.99 in2.0 miSE (130°)4.6 mphOvercast
7:34 AM65.5 °F64.8 °F98 %30.00 in2.5 miSE (140°)3.5 mphOvercast
7:54 AM66.2 °F65.3 °F97 %30.03 in3.0 miNNW (330°)12.7 mph23.0 mphOvercast
8:14 AM67.1 °F65.7 °F95 %30.03 in3.0 miNW (320°)3.5 mphRainRain
8:34 AM66.7 °F66.2 °F98 %30.00 in1.0 miENE (60°)6.9 mph0.17 inRainHeavy Rain
8:55 AM66.6 °F66.2 °F99 %30.00 in1.5 miCalm0.19 inRainLight Rain
9:14 AM67.5 °F67.1 °F99 %30.01 in1.8 miSE (130°)9.2 mph0.01 inMostly Cloudy
9:34 AM67.3 °F66.7 °F98 %30.01 in2.0 miSSE (160°)5.8 mph0.01 inOvercast
9:54 AM66.9 °F66.4 °F98 %30.02 in2.0 miSSE (160°)6.9 mph0.01 inOvercast
10:34 AM67.5 °F66.7 °F98 %29.94 in2.0 miESE (120°)11.5 mphRainLight Rain
10:54 AM66.4 °F65.7 °F98 %29.93 in1.8 miSE (130°)6.9 mphRainLight Rain
11:14 AM67.1 °F66.4 °F98 %29.93 in2.0 miESE (120°)9.2 mphOvercast
11:34 AM67.8 °F66.9 °F97 %29.95 in2.5 miSE (130°)11.5 mph18.4 mphOvercast
11:54 AM66.9 °F66.0 °F97 %29.96 in2.0 miSE (140°)11.5 mph19.6 mphOvercast
12:14 PM66.4 °F65.8 °F98 %29.96 in1.8 miSE (140°)11.5 mphOvercast
12:34 PM67.1 °F66.2 °F97 %29.98 in1.8 miSouth (170°)8.1 mphOvercast
12:55 PM69.1 °F67.5 °F95 %29.98 in2.5 miSouth (170°)11.5 mph17.3 mphOvercast
1:14 PM68.9 °F66.9 °F93 %29.98 in4.0 miSSW (210°)8.1 mphOvercast
1:34 PM69.6 °F67.3 °F92 %29.98 in4.0 miSSW (210°)8.1 mphOvercast
1:55 PM71.1 °F67.5 °F88 %29.96 in5.0 miSSW (200°)10.4 mphMostly Cloudy
2:14 PM72.7 °F68.2 °F86 %29.95 in7.0 miSW (220°)8.1 mphScattered Clouds
2:34 PM75.4 °F69.1 °F81 %29.95 in10.0 miSSW (200°)6.9 mphClear
2:54 PM74.7 °F68.4 °F81 %29.95 in10.0 miSouth (190°)6.9 mphClear
3:14 PM74.3 °F67.8 °F80 %29.95 in10.0 miSouth (180°)6.9 mphClear
3:35 PM72.1 °F67.1 °F84 %29.96 in7.0 miSSE (160°)8.1 mphClear
3:54 PM69.8 °F66.6 °F89 %29.96 in5.0 miSouth (170°)9.2 mphScattered Clouds
4:14 PM72.1 °F67.1 °F84 %29.95 in10.0 miSouth (170°)10.4 mph16.1 mphScattered Clouds
4:35 PM72.3 °F66.0 °F80 %29.94 in10.0 miSouth (180°)15.0 mph19.6 mphClear
4:54 PM72.9 °F65.5 °F78 %29.94 in10.0 miSouth (190°)11.5 mph19.6 mphClear
5:14 PM71.2 °F65.3 °F81 %29.93 in10.0 miSouth (190°)9.2 mphClear
5:34 PM71.2 °F65.1 °F81 %29.93 in10.0 miSSW (210°)6.9 mphClear
5:54 PM70.5 °F64.9 °F82 %29.92 in10.0 miSSW (200°)8.1 mph17.3 mphClear
6:14 PM70.7 °F65.5 °F83 %29.92 in10.0 miSSW (210°)10.4 mphClear
6:34 PM69.3 °F65.5 °F88 %29.93 in10.0 miSW (220°)10.4 mphClear
6:54 PM69.6 °F66.2 °F89 %29.93 in10.0 miSSW (210°)10.4 mph16.1 mphClear
7:14 PM69.1 °F66.0 °F90 %29.93 in10.0 miSSW (210°)10.4 mph19.6 mphClear
7:34 PM68.0 °F65.5 °F92 %29.92 in10.0 miSSW (200°)9.2 mphClear
7:55 PM67.1 °F65.1 °F93 %29.92 in10.0 miSSW (210°)9.2 mphClear
8:14 PM67.1 °F64.9 °F93 %29.92 in10.0 miSSW (210°)10.4 mphClear
8:34 PM66.4 °F64.8 °F95 %29.90 in10.0 miSouth (190°)9.2 mphClear
8:54 PM66.6 °F64.6 °F93 %29.91 in10.0 miSSW (210°)8.1 mphClear
9:14 PM67.1 °F64.4 °F91 %29.91 in10.0 miSSW (210°)8.1 mph17.3 mphClear
9:34 PM66.7 °F64.4 °F92 %29.91 in10.0 miSSW (210°)9.2 mphClear
9:54 PM66.4 °F64.4 °F93 %29.92 in10.0 miSSW (200°)8.1 mphClear
10:14 PM66.2 °F64.4 °F94 %29.92 in10.0 miSSW (200°)6.9 mphClear
10:35 PM66.2 °F64.4 °F94 %29.92 in10.0 miSSW (200°)5.8 mphClear
11:14 PM65.8 °F64.6 °F96 %29.91 in10.0 miSSW (200°)8.1 mphClear
11:35 PM65.7 °F64.6 °F96 %29.92 in10.0 miSouth (190°)8.1 mphClear
11:54 PM65.7 °F64.6 °F96 %29.91 in10.0 miSouth (190°)9.2 mphClear
Hourly data recorded from KISQ, located miles away from Manistique, Michigan







STORIES FROM OUR PARTNERS